Location: Benque
(43.2594°N, 0.9178°E)
Time: 06:33:39
(UTC+00:00)

Cosmos 1939 Rocket - Pass Details

Date: 24 January 2020
Orbit: 534 x 583 km, 97.4° (Epoch: 17 February)

Event Time Altitude Azimuth Distance (km) Brightness Sun altitude
Rises 18:24:16 0° 159° (SSE) 2,686 6.2 -15.8°
Reaches altitude 10° 18:26:22 10° 156° (SSE) 1,805 5.3 -16.2°
Maximum altitude 18:30:14 64° 75° (ENE) 613 2.7 -16.9°
Drops below altitude 10° 18:34:11 10° 354° (N) 1,847 5.5 -17.6°
Sets 18:36:21 0° 351° (N) 2,756 6.4 -18.0°
